• Join FlightAware (Why Join?)
  • Login
  • US Flag 
08:02PM EDT


 

Airport Tracker/Info


-or-


 

Live Flight TrackerFlight Track Log ✈ SWA868 ✈ 01-May-2013 ✈ KBNA - KTPA

Flight Track Log - Related Links

Times and Time Zones

All times are in EDT time to prevent confusion due to time zone crossing. See the SWA868 flight status page for this flight to view local times or setup timezone preferences in your user account.

Time Position Orientation Groundspeed Altitude Reporting Facility
EDT Latitude Longitude Course Direction KTS MPH feet Rate Location/Type
06:51PM 36.1000 -86.6833 180° South 155 178 1,100  Level Nashville TRACON
06:51PM 36.0833 -86.6833 180° South 166 191 2,200 2,820 Climbing Nashville TRACON
06:52PM 36.0333 -86.6833 180° South 210 242 5,100 2,820 Climbing Nashville TRACON
06:53PM 35.9722 -86.6689 169° South 247 284 7,800 3,000 Climbing Memphis Center
06:54PM 35.9061 -86.6181 148° Southeast 280 322 11,100 3,420 Climbing Memphis Center
06:55PM 35.8314 -86.5572 147° Southeast 305 351 14,700 3,540 Climbing Memphis Center
06:56PM 35.7500 -86.4894 146° Southeast 333 383 18,200 3,300 Climbing Memphis Center
06:57PM 35.6528 -86.4481 161° South 355 409 21,400 2,460 Climbing Memphis Center
07:00PM 35.4139 -86.4011 171° South 413 475 26,500 2,220 Climbing Atlanta Center
07:01PM 35.3022 -86.3494 159° South 420 483 28,900 2,280 Climbing Atlanta Center
07:02PM 35.1928 -86.2906 156° South 426 490 31,100 2,340 Climbing Atlanta Center
07:03PM 35.0772 -86.2214 154° Southeast 426 490 33,600 2,040 Climbing Atlanta Center
07:04PM 34.9697 -86.1681 158° South 426 490 35,200 1,860 Climbing Atlanta Center
07:05PM 34.8556 -86.1194 161° South 426 490 37,400 2,880 Climbing Atlanta Center
07:06PM 34.7481 -86.0739 161° South 426 490 41,000 1,500 Climbing Atlanta Center
07:07PM 34.6442 -86.0308 161° South 415 478 40,400  Descending Atlanta Center
07:08PM 34.5344 -85.9828 160° South 415 478 41,000 300 Climbing Atlanta Center
07:09PM 34.4244 -85.9375 161° South 415 478 41,000  Level Atlanta Center
07:10PM 34.3125 -85.8897 161° South 420 483 41,000  Level Atlanta Center
07:11PM 34.2069 -85.8422 160° South 420 483 41,000  Level Atlanta Center
07:12PM 34.0969 -85.8022 163° South 415 478 41,000  Level Atlanta Center
07:13PM 34.0033 -85.7653 162° South 408 470 41,000  Level Atlanta Center
07:14PM 33.8975 -85.7206 161° South 403 464 41,000  Level Atlanta Center
07:15PM 33.7875 -85.6761 161° South 408 470 41,000  Level Atlanta Center
07:16PM 33.6797 -85.6314 161° South 403 464 41,000  Level Atlanta Center
07:17PM 33.5736 -85.5872 161° South 403 464 41,000  Level Atlanta Center
07:18PM 33.4533 -85.5353 160° South 408 470 41,000  Level Atlanta Center
07:19PM 33.3472 -85.4936 162° South 408 470 41,000  Level Atlanta Center
07:20PM 33.2394 -85.4494 161° South 408 470 41,000  Level Atlanta Center
07:21PM 33.1292 -85.4031 161° South 408 470 41,000  Level Atlanta Center
07:22PM 33.0233 -85.3544 159° South 403 464 41,000  Level Atlanta Center
07:23PM 32.9172 -85.3083 160° South 408 470 41,000  Level Atlanta Center
07:24PM 32.8092 -85.2672 162° South 408 470 41,000  Level Atlanta Center
07:25PM 32.7031 -85.2214 160° South 408 470 41,000  Level Atlanta Center
07:26PM 32.5889 -85.1753 161° South 408 470 41,000  Level Atlanta Center
07:27PM 32.4869 -85.1322 160° South 408 470 41,000  Level Atlanta Center
07:28PM 32.3789 -85.0889 161° South 402 463 41,000  Level Atlanta Center
07:29PM 32.2686 -85.0458 162° South 407 468 41,000  Level Atlanta Center
07:30PM 32.1603 -85.0081 164° South 407 468 41,000  Level Atlanta Center
07:31PM 32.0308 -84.9536 160° South 467 537 41,000  Level Jacksonville Center
07:32PM 31.9208 -84.9119 162° South 424 488 41,000  Level Jacksonville Center
07:33PM 31.8128 -84.8703 162° South 414 476 41,000  Level Jacksonville Center
07:34PM 31.7028 -84.8267 161° South 414 476 41,000  Level Jacksonville Center
07:35PM 31.5950 -84.7828 161° South 414 476 41,000  Level Jacksonville Center
07:36PM 31.4850 -84.7392 161° South 419 482 41,000  Level Jacksonville Center
07:37PM 31.3750 -84.6836 157° South 419 482 41,000  Level Jacksonville Center
07:38PM 31.2672 -84.6256 155° Southeast 429 494 41,000  Level Jacksonville Center
07:39PM 31.1575 -84.5700 157° South 435 501 41,000  Level Jacksonville Center
07:40PM 31.0456 -84.5147 157° South 435 501 41,000  Level Jacksonville Center
07:41PM 30.9375 -84.4572 155° Southeast 435 501 41,000  Level Jacksonville Center
07:42PM 30.8256 -84.4022 157° South 435 501 41,000  Level Jacksonville Center
07:43PM 30.7133 -84.3472 157° South 435 501 41,000  Level Jacksonville Center
07:44PM 30.6056 -84.2900 155° Southeast 435 501 41,000  Level Jacksonville Center
07:45PM 30.4933 -84.2331 156° South 435 501 41,000  Level Jacksonville Center
07:46PM 30.3875 -84.1761 155° Southeast 429 494 41,000  Level Jacksonville Center
07:47PM 30.2753 -84.1217 157° South 429 494 41,000  Level Jacksonville Center
07:48PM 30.1608 -84.0672 158° South 434 499 41,000  Level Jacksonville Center
07:49PM 30.0528 -84.0108 156° South 434 499 41,000 -180 Level Jacksonville Center
07:50PM 29.9406 -83.9567 157° South 434 499 40,700 -660 Descending Jacksonville Center
07:51PM 29.8261 -83.9006 157° South 434 499 39,700 -960 Descending Jacksonville Center
07:52PM 29.7203 -83.8325 151° Southeast 434 499 38,800 -900 Descending Jacksonville Center
07:53PM 29.6206 -83.7694 151° Southeast 447 514 37,900 -1,080 Descending Jacksonville Center
07:54PM 29.5103 -83.6967 150° Southeast 452 520 36,700 -2,460 Descending Jacksonville Center
07:55PM 29.4022 -83.6292 151° Southeast 452 520 33,000 -3,600 Descending Jacksonville Center
07:56PM 29.2961 -83.5569 149° Southeast 452 520 29,600 -3,060 Descending Jacksonville Center
07:57PM 29.1900 -83.4897 151° Southeast 452 520 26,900 -1,620 Descending Jacksonville Center
07:58PM 29.0839 -83.4247 152° Southeast 440 506 26,400 -720 Descending Jacksonville Center
07:59PM 28.9756 -83.3553 151° Southeast 440 506 25,500 -1,260 Descending Jacksonville Center
08:00PM 28.8672 -83.2839 150° Southeast 445 512 23,900 -2,340 Descending Jacksonville Center
08:01PM 28.7631 -83.2217 152° Southeast 435 501 20,900 -3,120 Descending Jacksonville Center
08:03PM 28.5500 -83.0833 150° Southeast 403 464 14,800 -3,000 Descending Tampa TRACON
08:04PM 28.4667 -83.0333 152° Southeast 387 445 12,200 -2,220 Descending Tampa TRACON
08:05PM 28.3833 -82.9833 152° Southeast 356 410 10,400 -1,440 Descending Tampa TRACON
08:06PM 28.3000 -82.9333 152° Southeast 301 346 9,400 -1,200 Descending Tampa TRACON
08:07PM 28.2667 -82.8500 114° Southeast 279 321 8,000 -1,320 Descending Tampa TRACON
08:08PM 28.2833 -82.7667 77° East 270 311 6,800 -900 Descending Tampa TRACON
08:09PM 28.2833 -82.7000 90° East 227 261 6,200 -480 Descending Tampa TRACON
08:10PM 28.2667 -82.6333 106° East 216 249 5,900 -720 Descending Tampa TRACON
08:11PM 28.2333 -82.5667 120° Southeast 216 249 4,800 -900 Descending Tampa TRACON
08:12PM 28.2000 -82.5333 139° Southeast 192 221 4,100 -900 Descending Tampa TRACON
08:13PM 28.1500 -82.5167 164° South 180 207 3,000 -1,080 Descending Tampa TRACON
08:14PM 28.0833 -82.5333 192° South 182 209 1,700 -900 Descending Tampa TRACON
08:15PM 28.0500 -82.5333 180° South 161 185 1,300 -720 Descending Tampa TRACON
08:16PM 28.0167 -82.5333 180° South 128 147 400 -720 Descending Tampa TRACON
08:18PM 27.9755 -82.5332 161° South  Level Estimated
08:25PM 27.9755 -82.5332 161° South  Level Estimated